Starlink 4082

operational
NORAD ID: 52658 Int'l Des: 2022-053 Owner: SPXS Country: US Constellation: starlink
LEOCIRCULAR

关于 Starlink 4082

正在加载描述...

实时位置

正在加载3D地球...

即将过境

高度历史

Altitude vs Time

uPlot chart will show altitude changes over time

两行轨道根数

1 52658U 22053C 25257.29760318 -.00000146 00000-0 89492-5 0 9994
2 52658 53.2157 225.9778 0001553 88.2686 271.8484 15.08833126184603
Epoch: Sep 14, 2025 • Age: 25 hours

当前状态

高度 540.7 km
速度 7.59 km/s
星下点 -0.31°S, 97.77°E
发射日期 May 18, 2022
运行时间 3.3 years
类型 internet

技术详情

分类 Payload
质量 297.00 kg
干质量 275.00 kg
总质量 297.00 kg
长度 0.20 m
直径 2.80 m
跨度 9.00 m
形状 Box + pan
制造商 SPXS
平台类型 Starlink
阶段状态 In Orbit
所有者/国家 SPXS/US

大型星座

Loading constellations...